Location: Unspecified
(22.6800°N, 112.2000°E)
Time: 03:04:25
(UTC+08:00)

SR - Visible Passes

Search period start: 28 July 2021 00:00
Search period end: 07 August 2021 00:00
Orbit: 577 x 878 km, 66.7° (Epoch: 26 July)

Date Brightness Start Highest point End Pass type
(mag) Time Alt. Az. Time Alt. Az. Time Alt. Az.
30 Jul ? 05:03:40 10° SE 05:07:04 16° ESE 05:10:27 10° ENE visible
01 Aug ? 05:04:03 10° S 05:09:16 33° ESE 05:14:23 10° NE visible
02 Aug ? 04:16:39 10° SE 04:19:41 14° ESE 04:22:42 10° ENE visible
03 Aug ? 05:05:42 10° SSW 05:11:32 68° ESE 05:17:16 10° NNE visible
04 Aug ? 04:16:48 10° SSE 04:21:53 30° ESE 04:26:52 10° NE visible
05 Aug ? 03:29:42 10° SE 03:32:18 13° ESE 03:34:53 10° ENE visible
05 Aug ? 05:08:35 12° SW 05:13:55 60° WNW 05:19:35 10° NNE visible
06 Aug ? 04:20:57 27° S 04:24:09 63° ESE 04:29:49 10° NNE visible
